Temperature
19 19 19 19 17 17 18 19 19 20 19 19 19 19 18 18 18 18 17 18 18 18 18 17 17 18 18 18 18 18 18 18 18 18 18 18 18 18 18 18 18 18 18 18 18 18 18 18 18
19 19 19 19 17 18 19 19 19 19 19 19 19 18 18 17 17 17 17 17 18 18 17 17 17 17 18 18 18 18 18 18 18 18 18 18 18 18 17 17 17 17 17 17 17 17 17 17 17
19 19 19 17 17 18 19 19 19 19 19 19 18 18 17 17 17 17 17 17 17 17 17 17 17 17 17 17 17 17 17 17 17 17 17 17 17 17 17 17 17 17 17 17 17 17 17 17 17
19 19 19 17 18 18 19 19 19 19 19 19 18 17 17 17 17 17 17 17 17 17 17 17 17 17 17 17 17 17 17 17 17 17 17 17 17 17 17 17 17 17 17 17 17 17 17 17 17
20 19 17 17 18 19 19 19 19 19 19 18 18 17 17 17 17 17 17 17 17 17 17 17 17 17 17 17 17 17 17 17 17 17 17 17 17 17 17 17 17 17 17 17 17 17 17 17 17
20 17 17 17 18 19 19 19 19 18 18 18 17 17 16 17 17 17 17 17 17 17 17 17 17 17 17 17 17 17 17 17 17 16 16 16 16 16 16 17 17 17 17 17 17 17 17 17 17
19 16 17 18 18 19 19 19 19 18 18 18 18 17 16 16 17 17 17 17 17 17 17 17 17 17 17 17 17 17 17 16 16 16 16 16 16 16 16 16 16 16 16 16 16 16 16 16 16
19 16 17 17 18 19 19 19 18 18 17 18 18 17 16 16 17 17 17 17 17 17 17 17 17 17 17 17 16 16 16 16 16 16 16 16 16 16 16 16 16 16 16 16 16 16 16 16 16
19 16 17 18 18 18 19 19 18 18 18 17 17 17 17 17 17 17 17 17 17 17 17 17 17 17 17 17 16 16 16 16 16 16 16 16 16 16 16 16 16 16 16 16 16 16 16 16 16
18 16 18 18 18 18 19 18 18 18 17 17 17 17 17 17 17 17 17 17 17 17 17 17 17 17 17 16 16 16 16 16 16 16 16 16 16 16 16 16 16 16 16 16 16 16 16 16 16
18 17 18 18 19 19 19 18 18 18 17 17 17 17 17 17 17 17 17 17 17 17 17 17 17 17 17 17 16 16 16 16 16 16 16 16 16 16 16 16 16 16 16 16 16 16 16 16 16
18 18 18 19 19 19 18 18 18 18 18 18 18 18 17 17 17 17 17 17 17 17 17 17 17 17 17 17 16 16 16 16 16 16 16 16 16 16 16 16 16 16 16 16 16 16 16 16 16
18 18 19 19 19 19 19 18 18 18 18 18 18 17 17 17 17 17 17 17 17 17 17 17 17 17 17 17 16 16 16 16 16 16 16 16 16 16 16 16 16 16 16 16 16 16 16 16 16
18 18 18 19 19 19 18 18 18 17 18 18 17 17 17 17 17 17 17 17 17 17 17 17 17 17 17 17 16 16 16 16 16 16 16 16 16 16 16 16 16 16 16 16 16 16 16 16 16
18 18 18 18 18 18 19 18 17 18 18 17 17 17 17 17 17 17 17 17 17 17 17 17 17 17 17 17 16 16 16 16 16 16 16 16 16 16 16 16 16 16 16 16 16 16 16 16 16
18 17 17 18 18 18 18 17 17 18 17 17 17 17 17 17 17 17 17 17 17 17 17 17 17 17 17 16 16 16 16 16 16 16 16 16 16 16 16 16 16 16 16 16 16 16 16 15 15
17 17 17 18 18 18 18 17 17 17 17 17 17 17 17 17 17 17 17 17 17 17 17 17 17 17 17 16 16 16 16 16 16 16 16 16 16 16 16 16 16 16 16 16 16 15 15 15 15
17 17 17 17 18 18 17 16 16 17 17 17 17 17 17 17 17 17 17 17 17 17 17 17 17 16 16 16 16 16 16 16 16 16 16 16 16 16 16 16 16 16 16 15 15 15 15 15 15
18 17 17 18 18 18 17 16 16 16 16 16 17 17 17 17 18 17 17 17 17 17 17 17 17 16 16 16 16 16 16 16 16 16 16 16 16 16 16 16 16 16 15 15 15 15 15 15 15
18 17 17 17 18 18 16 16 16 16 16 17 17 17 17 17 17 17 17 17 17 17 17 17 17 16 16 16 16 16 16 16 16 16 16 16 16 15 15 15 15 15 15 15 15 15 15 15 15
17 17 17 17 17 17 17 16 16 16 16 17 17 17 18 18 18 18 18 17 17 17 17 17 17 17 16 16 16 16 16 16 16 16 16 15 15 15 15 15 15 15 15 15 15 15 15 15 15
17 18 18 18 17 16 17 15 16 15 15 16 17 17 18 18 18 18 18 18 18 17 17 17 17 17 16 16 16 16 16 16 16 16 16 15 15 15 15 15 15 15 15 15 15 15 15 15 15
18 18 18 17 16 16 16 15 15 15 15 15 16 17 18 18 18 18 18 18 18 18 17 17 17 16 16 16 16 16 16 16 15 15 15 15 15 15 15 15 15 15 15 15 15 15 15 15 15
18 17 16 15 15 15 16 15 15 15 15 16 16 17 18 18 18 18 18 18 18 18 17 17 17 16 16 16 16 16 16 16 15 15 15 15 15 15 15 15 15 15 15 15 15 15 15 15 15
17 16 15 15 14 15 15 15 15 16 16 16 17 17 18 18 18 18 18 18 18 18 17 17 17 16 16 16 16 16 16 16 15 15 15 15 15 15 15 15 15 15 15 15 15 15 15 15 15
16 16 15 16 15 15 15 15 16 17 17 17 18 18 18 18 18 18 18 18 18 18 17 17 17 17 16 16 16 16 16 16 15 15 15 15 15 15 15 15 15 15 15 15 15 15 15 14 14
16 15 15 15 15 15 15 15 16 17 16 16 17 17 17 17 18 18 18 18 18 18 17 17 17 17 17 16 16 16 16 16 15 15 15 15 15 15 15 15 15 15 15 15 15 14 14 14 14
16 15 14 14 15 15 15 16 16 17 16 16 16 16 17 17 17 18 18 18 18 18 17 17 17 17 17 16 16 16 16 16 15 15 15 15 15 15 15 15 15 15 15 14 14 14 14 14 14
16 15 14 13 14 14 15 15 17 16 16 16 16 17 17 17 17 17 18 18 18 17 17 17 17 17 17 16 16 16 16 16 15 15 15 15 15 15 15 15 15 15 14 14 14 14 14 14 14
17 16 14 15 14 14 14 15 17 16 16 16 16 17 17 17 18 18 18 17 17 17 17 17 17 17 17 16 16 16 16 15 15 15 15 15 15 15 15 15 15 14 14 14 14 14 14 14 14
Wind_Speed
2 5 3 3 4 4 1 1 0 2 2 2 5 6 7 5 2 2 1 3 6 5 7 9 11 11 11 11 11 11 11 12 12 12 12 12 12 12 11 11 11 10 10 10 10 10 10 9 10
2 3 3 4 4 2 1 1 1 2 4 4 5 6 6 5 3 4 2 3 6 6 8 9 11 11 11 10 10 11 11 11 11 12 11 11 11 11 11 11 10 10 10 10 9 9 9 9 9
3 2 3 3 3 3 2 0 3 4 4 3 4 5 4 3 3 2 3 6 6 6 7 10 11 11 11 11 10 11 11 11 11 11 10 11 11 10 10 10 10 10 10 9 9 9 9 8 9
3 4 4 3 2 1 2 2 4 5 4 5 5 5 4 3 1 3 5 7 7 5 7 10 11 11 11 11 10 10 11 10 10 10 10 10 10 10 10 9 9 9 9 9 9 9 8 8 8
3 4 4 2 1 0 0 1 3 4 3 4 4 5 3 4 6 8 6 6 7 5 7 8 10 11 11 10 10 9 10 10 10 10 10 9 9 9 9 9 8 8 8 8 8 8 8 8 8
4 4 4 2 1 1 1 1 3 5 5 4 5 5 3 3 6 6 6 5 5 5 6 7 9 10 10 10 9 9 9 9 9 9 9 8 8 8 8 8 8 8 8 8 8 8 8 8 8
4 3 3 2 1 2 1 2 4 5 6 4 3 5 3 2 4 5 6 6 5 5 5 5 6 7 8 8 8 8 8 8 7 8 7 7 7 7 7 7 7 7 7 7 7 8 8 8 8
4 4 2 1 2 1 1 3 4 5 4 3 3 6 5 4 5 6 6 6 6 5 5 5 5 6 5 5 7 7 7 6 6 6 6 6 6 6 6 6 6 6 6 7 7 7 8 8 8
4 4 2 2 3 2 2 4 3 4 6 4 3 3 6 9 9 8 6 5 4 4 4 4 4 5 5 4 5 6 6 5 5 5 5 5 5 5 5 5 5 5 6 6 7 7 8 8 9
4 3 1 1 2 3 3 4 4 5 5 4 5 7 10 10 9 8 6 4 3 2 2 3 3 3 4 3 4 5 5 5 5 5 5 4 4 4 4 5 6 6 6 7 8 8 8 9 8
3 3 1 2 2 4 4 4 3 7 3 3 7 11 11 9 8 6 5 4 3 2 1 2 2 3 3 3 3 4 4 4 5 4 3 4 4 4 5 5 6 6 7 7 8 8 8 8 7
3 2 2 2 3 4 4 4 4 3 1 4 9 12 11 10 8 6 5 3 2 2 1 2 2 2 3 3 3 3 2 3 3 3 3 4 3 3 3 4 4 5 5 5 6 6 6 7 7
3 2 3 4 6 5 6 5 3 2 4 9 11 9 9 9 7 5 5 4 4 2 1 1 2 2 2 3 2 2 2 2 3 3 3 4 3 2 2 3 4 4 4 4 4 4 5 5 6
2 3 4 4 4 3 6 3 3 2 7 9 9 8 7 7 7 6 5 5 4 3 2 1 2 3 3 3 2 2 2 3 4 4 4 5 5 3 3 3 3 3 4 5 5 5 4 4 5
3 4 4 3 2 2 5 4 1 2 7 8 7 6 6 5 5 6 6 5 5 4 4 3 2 3 3 3 3 3 3 3 3 4 4 5 5 4 4 3 2 3 5 6 6 6 5 4 4
4 4 2 2 1 2 5 1 2 3 7 6 6 5 5 4 4 4 5 5 5 4 4 3 3 4 3 3 3 3 4 3 3 4 4 4 4 5 5 3 3 4 5 5 4 3 4 4 4
3 2 1 2 1 2 4 3 2 4 6 5 5 5 5 4 4 4 4 5 6 6 5 4 3 4 4 4 4 4 4 4 3 4 4 4 5 6 6 4 4 5 5 4 3 4 3 4 4
4 3 2 3 1 3 3 3 3 4 6 6 6 5 5 5 6 5 5 5 5 5 5 5 4 4 4 4 4 3 3 3 4 4 4 5 5 6 6 5 5 5 4 4 4 4 4 3 3
5 4 3 2 2 3 4 4 4 5 5 6 6 6 7 7 5 4 4 5 5 5 5 5 5 4 4 3 3 2 2 2 2 3 4 5 5 6 6 4 4 4 4 4 4 4 5 3 2
4 3 2 1 0 2 2 4 4 6 7 8 8 8 9 7 4 4 5 5 6 6 6 5 5 5 4 3 3 2 2 2 2 2 4 5 5 5 5 5 3 3 4 4 3 3 3 2 3
2 4 4 3 1 2 2 3 4 4 5 6 6 7 7 9 8 6 6 6 6 6 7 7 6 5 4 4 4 3 3 3 3 3 2 3 4 5 5 5 4 3 3 3 3 3 4 2 2
3 4 4 4 3 1 2 3 5 5 5 7 8 8 8 8 7 7 7 7 7 7 6 6 6 5 5 5 6 5 3 2 1 1 1 3 4 4 4 5 5 4 3 3 2 2 2 3 2
4 2 3 3 3 0 1 2 6 2 6 9 10 10 9 9 8 8 8 8 7 7 6 6 6 5 5 5 6 6 4 3 2 2 3 3 3 4 4 4 4 4 3 3 3 3 3 2 2
5 6 6 5 3 1 4 4 6 5 8 8 8 9 10 9 9 7 6 6 5 5 6 6 6 5 5 5 5 6 6 5 4 3 2 2 2 2 3 4 4 3 3 3 3 3 3 3 3
5 5 3 2 1 4 2 3 8 7 6 8 9 9 9 9 9 7 7 7 7 7 7 7 7 6 5 6 5 5 6 6 5 4 3 2 1 1 1 2 2 3 3 4 4 3 3 3 3
5 7 6 4 4 4 1 5 7 5 4 4 6 7 8 9 9 9 9 8 8 9 8 8 7 6 6 6 5 5 5 4 3 3 3 3 2 1 1 3 3 4 4 4 4 3 3 3 3
6 4 5 5 2 1 4 5 6 2 1 1 3 5 7 9 9 9 8 8 8 9 9 9 8 7 6 6 6 5 5 5 4 3 3 2 2 1 2 3 4 4 4 4 4 3 3 3 3
5 7 5 4 3 2 5 4 4 4 3 2 4 6 7 8 8 8 8 8 8 8 7 7 7 7 6 6 5 5 5 5 5 4 4 3 2 2 3 3 3 4 4 4 4 3 3 4 3
4 4 4 4 4 4 3 6 5 6 5 5 5 6 7 8 9 9 8 8 7 6 7 7 7 6 6 6 5 5 5 5 5 4 4 3 3 3 3 3 3 4 3 3 4 3 3 4 3
5 6 7 4 3 4 3 6 5 4 4 5 5 4 5 6 7 7 8 7 7 7 7 7 7 7 7 6 6 6 5 5 5 4 4 4 3 3 3 3 3 3 3 3 4 3 3 4 3
Wind_Direction
94 102 92 66 58 53 49 313 332 79 67 51 71 80 91 80 91 124 77 121 121 121 129 132 128 124 121 118 114 110 107 108 106 106 105 106 105 104 100 98 95 92 90 90 89 84 80 78 76
123 110 66 65 86 81 323 315 75 77 127 123 71 66 72 67 61 91 111 125 121 123 126 131 130 126 123 120 116 113 111 111 109 106 104 104 103 103 102 100 97 93 90 88 85 81 77 76 76
125 74 86 77 102 154 171 153 115 87 99 94 79 59 70 73 80 101 141 131 118 116 124 132 132 128 125 121 119 117 113 111 109 107 105 102 102 101 99 98 96 91 88 84 81 78 74 74 75
98 54 62 78 117 208 185 167 133 113 73 58 93 77 65 48 97 121 121 121 117 113 124 131 133 131 127 124 122 118 113 111 110 108 107 103 103 100 98 95 93 90 87 82 77 74 71 72 73
66 80 69 66 69 323 163 158 131 101 73 62 84 88 55 12 85 105 105 111 118 116 121 131 134 131 129 128 125 122 119 116 114 111 108 104 103 100 97 94 91 88 85 81 73 67 66 68 71
62 67 87 109 50 17 37 85 103 97 96 87 84 91 64 66 89 102 99 101 107 115 117 128 138 136 133 131 127 123 119 118 117 114 109 105 102 100 98 93 87 82 78 76 70 65 63 64 67
106 97 121 141 106 48 57 65 91 102 95 91 101 98 95 93 92 98 91 90 86 93 97 100 114 128 130 130 129 124 119 118 115 112 108 102 99 97 94 89 85 78 73 70 68 63 62 63 65
118 102 89 114 127 96 57 79 79 84 90 75 80 125 148 159 114 94 84 79 77 72 77 81 84 84 87 105 124 123 117 113 108 105 101 92 83 80 81 79 78 72 69 67 66 62 62 63 69
86 79 117 181 164 156 100 95 71 71 89 66 54 101 134 129 115 102 90 74 75 71 61 69 71 75 77 85 105 105 102 91 84 82 82 75 61 55 58 64 64 62 62 62 61 63 62 63 68
78 108 191 210 165 136 94 96 118 99 82 76 80 88 116 124 123 122 123 119 108 92 63 75 79 79 68 74 82 84 81 68 60 61 64 65 61 52 56 52 48 46 49 50 55 61 62 65 67
106 137 109 45 99 112 99 88 93 117 108 162 149 141 136 133 132 133 135 136 143 148 126 105 100 94 84 70 75 73 68 59 56 62 71 75 69 55 50 44 32 33 41 44 50 53 57 66 73
103 64 102 78 79 85 103 105 90 103 150 143 142 144 142 145 146 148 149 145 124 120 134 120 111 100 96 91 80 75 65 53 54 56 78 95 82 60 49 45 34 36 42 47 52 56 61 67 71
75 46 59 86 86 87 85 84 96 65 87 111 126 135 144 151 151 152 150 141 127 132 145 136 134 120 103 93 82 84 77 66 65 67 81 106 101 86 66 57 56 51 56 59 59 63 65 68 68
112 88 70 63 73 78 91 73 82 82 116 123 138 150 155 159 159 156 154 148 153 162 168 141 128 128 112 99 87 76 80 84 82 81 91 106 111 108 89 72 64 58 63 69 73 70 70 66 67
92 83 48 28 59 86 91 50 76 153 136 138 148 159 161 167 170 173 173 166 170 170 166 159 143 117 110 98 88 93 91 89 86 86 91 101 108 110 104 89 68 63 78 84 79 73 69 68 66
67 73 57 310 99 109 111 178 251 158 149 152 157 166 173 185 194 191 175 168 167 157 160 165 155 129 116 103 91 84 82 80 79 85 89 98 107 112 105 96 80 84 89 85 79 72 72 63 60
53 116 178 287 178 128 132 191 241 167 160 171 179 184 189 201 209 198 179 171 165 165 162 153 141 131 122 107 92 79 74 73 76 82 88 90 96 107 104 95 89 92 84 74 83 71 83 79 68
185 170 182 215 223 135 148 208 225 188 179 191 196 198 203 213 216 198 180 166 156 158 156 149 136 124 117 103 89 73 64 57 60 69 86 97 100 102 100 92 89 92 82 71 76 81 70 75 75
153 150 176 235 203 151 188 212 225 204 198 208 206 205 209 222 219 186 172 158 149 151 153 152 144 142 129 113 106 98 81 50 43 53 83 99 103 102 98 94 85 85 92 97 100 94 80 58 53
140 147 179 293 181 157 193 245 234 208 208 208 208 209 210 211 201 183 171 163 168 169 166 157 159 157 151 135 123 120 112 85 61 50 66 81 97 102 105 98 92 90 100 93 92 101 96 56 40
170 178 188 183 79 56 110 299 249 234 221 218 211 208 208 205 201 196 183 179 173 178 178 174 169 160 155 142 116 92 68 56 49 40 41 46 86 96 102 103 100 98 105 113 109 114 114 110 42
206 207 181 164 141 243 167 265 266 227 228 226 221 209 207 205 198 193 187 186 185 188 178 168 165 156 151 146 141 137 132 124 128 100 72 53 73 87 99 104 101 97 95 108 118 108 112 122 106
186 132 130 146 144 86 199 210 281 219 231 235 223 212 209 200 193 193 196 194 189 177 168 162 155 149 147 146 147 140 132 129 110 83 79 61 52 67 86 97 99 96 92 100 92 91 98 112 131
121 77 59 55 76 270 225 191 274 229 220 223 217 211 205 197 193 195 192 177 171 160 157 156 153 153 149 144 142 145 146 142 131 112 100 73 54 47 65 86 90 95 97 97 97 99 100 99 105
100 98 54 11 353 256 233 206 251 248 225 214 213 209 199 189 185 184 181 177 172 164 164 162 159 162 158 151 154 157 154 152 154 150 144 131 103 70 71 92 96 93 98 102 101 98 93 97 103
163 147 159 194 221 272 259 237 258 262 243 214 205 195 185 182 183 186 189 182 177 173 170 167 169 170 165 160 160 158 153 149 153 152 145 148 156 166 133 111 107 101 100 99 96 91 87 88 93
144 173 164 136 153 242 266 278 300 294 327 160 173 171 183 188 186 186 186 182 178 178 180 177 174 171 171 168 159 157 158 155 154 148 141 141 139 139 115 110 107 103 100 98 98 90 85 90 86
143 144 111 127 151 258 290 274 255 262 239 194 183 186 188 182 181 180 181 183 182 182 178 173 173 173 171 166 168 166 162 158 153 146 147 145 140 113 117 111 109 104 97 97 99 94 89 90 81
124 122 122 130 154 163 264 275 237 227 211 197 201 197 188 183 182 182 184 182 175 169 168 171 171 167 167 170 167 155 154 151 150 151 154 151 140 138 134 128 119 112 107 103 104 101 98 96 84
161 163 149 154 200 175 188 268 286 237 208 195 199 196 190 185 180 176 173 165 162 169 176 176 172 171 173 167 156 154 149 144 150 154 151 142 141 137 133 127 123 118 115 114 118 120 110 108 101
Height
1505 1506 1507 1508 1511 1519 1521 1516 1512 1512 1512 1513 1513 1514 1516 1520 1523 1529 1526 1525 1527 1529 1530 1531 1532 1534 1535 1536 1537 1537 1538 1538 1539 1539 1540 1540 1541 1542 1542 1543 1544 1544 1545 1546 1546 1546 1547 1547 1547
1506 1506 1509 1509 1516 1527 1523 1515 1513 1512 1513 1514 1514 1516 1518 1521 1522 1524 1524 1526 1528 1530 1531 1532 1534 1535 1536 1537 1538 1538 1539 1539 1540 1540 1541 1542 1542 1543 1544 1544 1545 1546 1546 1547 1547 1548 1548 1548 1549
1506 1507 1509 1511 1518 1524 1520 1513 1512 1513 1514 1514 1516 1518 1520 1523 1523 1524 1526 1527 1529 1531 1532 1533 1535 1536 1537 1538 1539 1539 1540 1540 1541 1542 1542 1543 1544 1544 1545 1546 1546 1547 1548 1548 1549 1549 1549 1549 1550
1507 1508 1510 1515 1519 1516 1514 1512 1512 1513 1514 1515 1517 1521 1523 1525 1525 1526 1527 1529 1531 1532 1533 1534 1536 1537 1538 1539 1540 1541 1541 1542 1542 1543 1544 1544 1545 1546 1546 1547 1548 1548 1549 1549 1550 1550 1550 1550 1551
1507 1507 1513 1519 1517 1514 1512 1512 1512 1513 1515 1517 1518 1522 1524 1526 1526 1527 1528 1530 1532 1533 1535 1535 1537 1538 1539 1540 1541 1542 1543 1543 1544 1544 1545 1546 1546 1547 1547 1548 1549 1549 1550 1550 1551 1551 1552 1552 1552
1507 1508 1519 1522 1518 1514 1512 1512 1513 1514 1517 1518 1520 1522 1526 1528 1528 1529 1530 1531 1533 1534 1536 1537 1538 1539 1540 1541 1542 1543 1544 1545 1545 1546 1546 1547 1548 1548 1549 1549 1550 1550 1551 1551 1552 1552 1553 1553 1553
1508 1512 1518 1519 1518 1516 1514 1513 1514 1515 1518 1520 1521 1524 1527 1528 1530 1531 1532 1533 1534 1536 1537 1538 1539 1540 1541 1542 1543 1544 1545 1546 1547 1547 1548 1548 1549 1549 1550 1551 1551 1552 1552 1553 1553 1554 1554 1554 1554
1507 1512 1518 1519 1518 1517 1514 1515 1516 1517 1519 1521 1522 1524 1527 1529 1531 1532 1533 1534 1536 1537 1538 1539 1540 1542 1543 1543 1545 1546 1547 1548 1548 1549 1549 1550 1550 1551 1551 1552 1553 1553 1554 1554 1555 1555 1556 1556 1556
1508 1516 1521 1518 1517 1516 1514 1515 1518 1519 1520 1522 1523 1524 1526 1529 1531 1533 1534 1536 1537 1538 1539 1541 1542 1543 1544 1545 1546 1547 1548 1549 1550 1550 1551 1551 1552 1552 1553 1554 1554 1555 1555 1556 1556 1557 1557 1557 1557
1509 1518 1517 1514 1513 1514 1515 1516 1518 1520 1522 1523 1524 1526 1528 1530 1532 1533 1535 1536 1538 1539 1541 1542 1543 1544 1546 1547 1548 1549 1550 1551 1551 1552 1552 1553 1554 1555 1555 1555 1556 1557 1557 1558 1558 1558 1558 1559 1559
1510 1515 1514 1513 1513 1514 1515 1517 1519 1520 1523 1524 1524 1526 1528 1530 1533 1535 1536 1538 1540 1541 1542 1544 1545 1546 1547 1548 1550 1551 1552 1553 1553 1554 1554 1555 1556 1556 1557 1557 1558 1558 1559 1559 1559 1559 1560 1560 1560
1512 1513 1513 1514 1514 1515 1517 1518 1520 1521 1523 1524 1525 1527 1529 1531 1534 1536 1538 1539 1541 1542 1544 1545 1547 1548 1549 1550 1551 1552 1553 1554 1555 1555 1556 1557 1557 1558 1559 1559 1559 1560 1560 1560 1560 1560 1561 1562 1562
1513 1514 1515 1515 1516 1517 1518 1520 1522 1523 1524 1525 1527 1529 1530 1532 1535 1537 1539 1541 1543 1544 1545 1547 1548 1549 1550 1552 1553 1554 1555 1555 1556 1557 1558 1558 1559 1559 1560 1560 1561 1561 1561 1561 1561 1562 1562 1563 1563
1515 1516 1517 1517 1518 1519 1520 1522 1523 1525 1526 1527 1529 1530 1532 1534 1536 1538 1540 1542 1544 1545 1547 1548 1549 1551 1552 1553 1554 1555 1556 1556 1557 1558 1559 1559 1560 1561 1561 1561 1562 1562 1562 1562 1563 1563 1563 1564 1564
1516 1518 1519 1520 1519 1521 1522 1526 1525 1526 1527 1528 1530 1532 1533 1535 1537 1539 1540 1542 1544 1546 1548 1549 1551 1552 1553 1554 1555 1556 1557 1558 1558 1559 1560 1561 1561 1562 1562 1562 1563 1563 1563 1563 1564 1564 1564 1564 1565
1518 1523 1527 1523 1521 1522 1526 1532 1527 1527 1528 1529 1531 1533 1534 1536 1538 1539 1541 1543 1545 1546 1548 1550 1552 1553 1554 1555 1556 1557 1558 1558 1559 1560 1561 1561 1562 1562 1563 1563 1563 1564 1564 1564 1565 1565 1565 1565 1566
1525 1530 1530 1525 1521 1522 1526 1530 1527 1527 1528 1529 1531 1533 1534 1536 1538 1539 1541 1543 1545 1547 1548 1550 1552 1553 1555 1556 1557 1558 1558 1559 1560 1561 1562 1562 1563 1563 1564 1564 1564 1565 1565 1565 1565 1566 1566 1566 1567
1529 1529 1529 1527 1522 1523 1527 1529 1527 1527 1528 1529 1530 1532 1534 1535 1537 1539 1541 1543 1545 1547 1549 1550 1552 1554 1555 1556 1557 1558 1559 1560 1561 1562 1562 1563 1563 1564 1564 1565 1565 1565 1566 1566 1566 1566 1567 1567 1567
1521 1525 1528 1525 1521 1524 1527 1528 1527 1526 1528 1528 1529 1531 1532 1534 1536 1539 1541 1543 1544 1546 1548 1550 1552 1554 1555 1556 1557 1559 1560 1561 1561 1562 1563 1563 1564 1565 1565 1565 1566 1566 1566 1567 1567 1567 1567 1568 1568
1520 1526 1527 1525 1521 1524 1528 1528 1525 1525 1525 1526 1527 1529 1530 1533 1535 1537 1539 1541 1543 1545 1547 1550 1552 1553 1555 1556 1557 1559 1560 1561 1562 1563 1563 1564 1565 1565 1566 1566 1566 1567 1567 1567 1568 1568 1568 1568 1569
1522 1525 1525 1526 1524 1524 1527 1530 1526 1523 1523 1524 1525 1527 1529 1531 1533 1536 1538 1540 1542 1544 1546 1549 1551 1553 1555 1556 1557 1559 1560 1561 1562 1563 1564 1565 1565 1566 1566 1567 1567 1567 1568 1568 1568 1569 1569 1569 1569
1523 1518 1519 1523 1530 1535 1531 1541 1528 1523 1522 1522 1522 1524 1526 1528 1531 1534 1536 1538 1541 1543 1546 1548 1550 1552 1554 1556 1557 1558 1560 1561 1562 1563 1564 1565 1566 1566 1567 1567 1568 1568 1568 1569 1569 1569 1569 1570 1570
1518 1515 1519 1523 1529 1535 1533 1539 1531 1523 1523 1519 1518 1520 1522 1525 1528 1531 1534 1537 1539 1542 1545 1547 1550 1552 1553 1555 1557 1558 1559 1561 1562 1563 1564 1565 1566 1566 1567 1567 1568 1568 1569 1569 1569 1570 1570 1570 1570
1514 1519 1524 1529 1534 1543 1535 1538 1534 1524 1517 1514 1513 1515 1518 1522 1525 1528 1532 1535 1538 1541 1543 1546 1548 1551 1553 1555 1556 1558 1559 1560 1562 1563 1564 1565 1566 1566 1567 1568 1568 1569 1569 1569 1569 1570 1570 1570 1570
1516 1529 1541 1544 1548 1545 1532 1534 1528 1512 1509 1508 1509 1511 1514 1518 1522 1526 1529 1533 1536 1538 1541 1544 1547 1550 1552 1554 1556 1557 1559 1560 1562 1563 1564 1565 1566 1566 1567 1568 1568 1569 1569 1569 1570 1570 1570 1570 1570
1517 1524 1540 1547 1549 1543 1533 1533 1519 1506 1505 1505 1506 1509 1512 1515 1519 1523 1527 1530 1533 1537 1540 1543 1546 1548 1551 1553 1555 1557 1558 1560 1561 1563 1564 1564 1565 1566 1567 1568 1568 1569 1569 1569 1570 1570 1570 1570 1570
1518 1524 1523 1535 1539 1543 1536 1526 1513 1505 1504 1504 1505 1507 1509 1513 1516 1520 1524 1528 1531 1535 1538 1541 1544 1547 1550 1552 1554 1556 1558 1559 1561 1562 1563 1564 1565 1566 1567 1568 1568 1569 1569 1569 1570 1570 1570 1569 1570
1511 1517 1528 1535 1543 1546 1536 1529 1522 1509 1506 1505 1505 1506 1507 1510 1514 1518 1522 1525 1529 1533 1537 1540 1543 1546 1548 1551 1553 1555 1557 1559 1560 1562 1563 1564 1565 1566 1566 1567 1568 1568 1569 1569 1570 1570 1569 1569 1569
1514 1519 1524 1532 1534 1543 1544 1531 1507 1504 1502 1503 1503 1504 1506 1509 1512 1516 1520 1523 1527 1531 1535 1538 1541 1544 1547 1549 1552 1554 1556 1558 1559 1561 1562 1563 1564 1565 1566 1567 1568 1568 1569 1569 1570 1569 1569 1569 1569
1505 1511 1519 1529 1533 1535 1538 1529 1500 1500 1500 1501 1502 1504 1506 1508 1511 1514 1518 1521 1525 1529 1533 1536 1539 1542 1545 1548 1550 1553 1555 1557 1559 1560 1561 1563 1564 1565 1566 1567 1567 1568 1569 1569 1569 1569 1570 1570 1569